Starlink 6076

operational
NORAD ID: 56100 Int'l Des: 2023-046 Owner: SPXS Country: US Constellation: starlink
LEOCIRCULAR

Über Starlink 6076

Beschreibung wird geladen...

Live-Position

3D-Globus wird geladen...

Nächste Überflüge

Höhenverlauf

Altitude vs Time

uPlot chart will show altitude changes over time

Zweizeiliger Elementsatz

1 56100U 23046H 25308.52899105 -.00000402 00000-0 -14715-4 0 9994
2 56100 43.0050 119.1200 0001253 265.4237 94.6462 15.02535992143235
Epoch: 4. Nov. 2025 • Age: 15 hours

Aktueller Status

Höhe 563.1 km
Geschwindigkeit 7.59 km/s
Subsatellitenpunkt 43.11°N, 105.95°E
Startdatum 29. März 2023
Alter 2.6 years
Typ internet

Technische Details

Klassifizierung Payload
Masse 305.00 kg
Trockenmasse 290.00 kg
Gesamtmasse 305.00 kg
Länge 0.20 m
Durchmesser 2.80 m
Spannweite 9.00 m
Form Box + pan
Hersteller SPXS
Bus-Typ Starlink
Phasenstatus In Orbit
Besitzer/Staat SPXS/US

Große Konstellationen

Loading constellations...